This is the latest recevied weather packets stored in our database for station/object KG5EO. If no packets are shown the sender has not sent any weather packets the latest 10 day(s).
| Time | Temp. | Humidity | Pressure | Rain* | Wind** | Luminosity | Snow |
|---|---|---|---|---|---|---|---|
| 1778162485 | 20° C | 39% | 41.1 hPa | 0 mm | - | - | - |
| 1778162156 | 18.89° C | 37% | 41.1 hPa | 0 mm | - | - | - |
| 1778161856 | 18.33° C | 43% | 41.1 hPa | 0 mm | - | - | - |
| 1778161554 | 17.78° C | 45% | 41.1 hPa | 0 mm | - | - | - |
| 1778161253 | 16.67° C | 48% | 41.1 hPa | 0 mm | - | - | - |
| 1778160983 | 15.56° C | 48% | 41 hPa | 0 mm | - | - | - |
| 1778160653 | 15° C | 49% | 41 hPa | 0 mm | - | - | - |
| 1778160353 | 14.44° C | 49% | 41 hPa | 0 mm | - | - | - |
| 1778160053 | 14.44° C | 48% | 41.1 hPa | 0 mm | - | - | - |
| 1778159753 | 14.44° C | 49% | 41 hPa | 0 mm | - | - | - |
| 1778159482 | 14.44° C | 49% | 41 hPa | 0 mm | - | - | - |
| 1778159152 | 13.89° C | 49% | 41 hPa | 0 mm | - | - | - |
| 1778158882 | 13.89° C | 50% | 41 hPa | 0 mm | - | - | - |
| 1778158582 | 13.89° C | 49% | 41 hPa | 0 mm | - | - | - |
| 1778158252 | 13.89° C | 50% | 41 hPa | 0 mm | - | - | - |
| 1778157952 | 13.33° C | 51% | 41 hPa | 0 mm | - | - | - |
| 1778157653 | 13.33° C | 52% | 41 hPa | 0 mm | - | - | - |
| 1778157382 | 13.33° C | 53% | 41 hPa | 0 mm | - | - | - |
| 1778157053 | 13.33° C | 53% | 41 hPa | 0 mm | - | - | - |
| 1778156781 | 13.33° C | 52% | 41 hPa | 0 mm | - | - | - |
| 1778156482 | 13.33° C | 52% | 41 hPa | 0 mm | - | - | - |
| 1778156151 | 13.89° C | 52% | 41 hPa | 0 mm | - | - | - |
| 1778155880 | 13.89° C | 51% | 41 hPa | 0 mm | - | - | - |
| 1778155551 | 13.89° C | 50% | 41 hPa | 0 mm | - | - | - |
| 1778155280 | 13.89° C | 51% | 41 hPa | 0 mm | - | - | - |
* Rain latest hour (hover to see other rain measurements)
** Current wind speed in m/s (hover to see current wind gust speed)